Location: McFarlands Corners
(41.4117°N, 81.3382°W)
Time: 08:15:03
(UTC+00:00)

Injun/Solrad 3 - Visible Passes

Search period start: 17 February 2026 00:00
Search period end: 27 February 2026 00:00
Orbit: 873 x 983 km, 66.8° (Epoch: 16 February)

Date Brightness Start Highest point End Pass type
(mag) Time Alt. Az. Time Alt. Az. Time Alt. Az.
17 Feb 8.5 00:53:24 10° NNW 00:59:01 36° NE 00:59:01 36° NE visible
17 Feb 9.7 02:39:47 10° NW 02:42:41 27° WNW 02:42:41 27° WNW visible
18 Feb 8.1 01:04:13 10° NNW 01:10:14 51° NE 01:10:26 51° ENE visible
18 Feb 10.0 02:51:15 10° NW 02:54:07 22° WNW 02:54:07 22° WNW visible
18 Feb 9.4 23:29:57 10° N 23:33:50 17° NE 23:37:47 10° ENE visible
19 Feb 7.8 01:15:09 10° NNW 01:21:21 75° ENE 01:21:59 69° ESE visible
19 Feb 10.3 03:03:08 10° WNW 03:05:40 17° W 03:05:40 17° W visible
19 Feb 9.1 23:40:29 10° N 23:45:18 23° NE 23:50:00 11° E visible
20 Feb 8.0 01:26:12 10° NNW 01:32:24 75° WSW 01:33:41 57° S visible
20 Feb 10.6 03:16:24 10° W 03:17:24 11° W 03:17:24 11° W visible
20 Feb 8.7 23:51:10 10° NNW 23:56:39 32° NE 00:01:53 11° ESE visible
21 Feb 8.7 01:37:23 10° NW 01:43:20 49° WSW 01:45:36 34° SSW visible
22 Feb 8.3 00:01:58 10° NNW 00:07:54 46° NE 00:13:56 10° SE visible
22 Feb 9.4 01:48:47 10° NW 01:54:12 32° WSW 01:57:48 19° SSW visible
23 Feb 7.9 00:12:52 10° NNW 00:19:03 67° ENE 00:25:21 10° SE visible
23 Feb 10.1 02:00:29 10° WNW 02:05:00 21° WSW 02:09:34 10° SSW visible
24 Feb 8.0 00:23:52 10° NNW 00:30:07 84° WSW 00:36:28 10° SSE visible
24 Feb 10.6 02:12:58 10° WNW 02:15:41 13° WSW 02:18:26 10° SW visible
25 Feb 8.6 00:35:01 10° NW 00:41:05 57° WSW 00:47:16 10° S visible
26 Feb 9.4 00:46:19 10° NW 00:51:58 37° WSW 00:57:44 10° S visible
